Location: Aghbalou
(31.1760°N, 8.9397°W)
Time: 09:39:34
(UTC+00:00)

Daily predictions for brighter satellites

Satellite Brightness Start Highest point End
(mag) Time Altitude Azimuth Time Altitude Azimuth Time Altitude Azimuth
Cosmos 1818 3.6 17:51:59 10° NNW 17:57:22 60° ENE 18:02:42 10° SE
Feng Yun 1-1 Rocket 4.3 17:54:42 10° SSE 18:00:21 67° ENE 18:05:53 10° N
Cosmos 2233 Rocket 4.2 17:55:53 10° N 18:02:01 51° E 18:08:04 10° SSE
SMAP 3.1 17:58:55 10° SSE 18:03:30 65° ENE 18:08:07 10° N
Cosmos 1356 Rocket 4.4 18:01:06 10° SSE 18:04:30 26° E 18:07:58 10° NE
Okean O Rocket 4.0 18:02:57 10° SSW 18:06:49 30° W 18:10:41 10° NW
Lacrosse 4 Rocket 3.0 18:04:16 10° SE 18:06:55 17° ESE 18:09:32 10° ENE
Genesis I 4.0 18:03:52 10° SW 18:07:47 53° WNW 18:11:44 10° NNE
IRS-1C Rocket 4.2 18:04:44 10° SSE 18:10:01 87° WSW 18:15:19 10° NNW
Cosmos 1238 Rocket 3.0 18:08:06 10° N 18:12:15 46° E 18:15:41 10° SSE
Cosmos 1743 Rocket 3.5 18:09:16 10° N 18:13:37 73° E 18:17:59 10° S
BREEZE-M DEB (TANK) 3.4 18:03:41 10° SW 18:13:50 75° NW 18:17:24 10° NE
Meteor 2-3 Rocket 3.8 18:09:27 10° N 18:15:15 70° E 18:20:57 10° SSE
Envisat 3.4 18:14:16 10° SE 18:18:59 41° ENE 18:23:44 10° N
COBE Rocket 3.9 18:15:32 10° N 18:20:21 84° W 18:25:00 10° SSW
Cosmos 1697 Rocket 3.6 18:17:01 10° SSE 18:21:44 28° ESE 18:26:27 10° NE
USA 229 DEB 3.7 18:21:55 10° SSW 18:28:24 80° WNW 18:35:09 10° NNE
USA 229 3.7 18:22:04 10° SSW 18:28:31 81° WNW 18:35:14 10° NNE
Starlink Launch 2 Placeholder 2.5 18:27:02 10° NW 18:29:28 69° SW 18:31:54 10° SE
CZ-4 R/B 2.2 18:27:20 10° SE 18:30:59 30° ENE 18:34:37 10° NNE
NOSS 3-1 (A) 3.2 18:28:40 10° SSW 18:33:51 60° ESE 18:39:36 10° NE
NOSS 3-1 (C) 3.4 18:30:35 10° SW 18:35:51 75° WNW 18:41:47 10° NNE
NOSS 2-3 (D) 4.3 18:32:40 10° S 18:36:25 31° ESE 18:38:46 19° ENE
Cosmos 1500 Rocket 4.2 18:35:02 10° NNW 18:39:18 58° W 18:43:33 10° S
ATLAS 5 CENTAUR R/B 3.5 18:34:41 10° N 18:39:27 23° NE 18:42:11 18° E
Cosmos 1869 3.6 18:38:20 10° SSW 18:42:17 70° W 18:46:14 10° N
SeaSat 1 2.4 18:40:46 10° SSE 18:45:41 85° ENE 18:50:38 10° NNW
Cosmos 1633 Rocket 4.1 18:42:28 10° NNE 18:49:13 12° SE 18:49:34 10° SE
COSMO-SKYMED 1 2.8 18:44:52 10° N 18:49:12 71° WNW 18:53:29 10° SSW
Cosmos 1680 Rocket 3.8 18:46:35 10° S 18:51:27 42° E 18:54:48 19° NE
Cosmos 1666 Rocket 4.0 18:50:46 10° NNE 18:54:49 37° E 18:58:49 10° SSE
Cosmos 1328 Rocket 4.0 18:51:05 10° SSE 18:55:11 38° E 18:57:10 25° NE
CSL-04 Debris 4.3 18:53:49 10° SSE 18:59:08 54° ENE 19:04:28 10° N
Cosmos 1607 4.3 18:56:17 10° NNW 19:02:06 40° ENE 19:05:02 26° ESE
Sich 1 2.9 18:59:21 10° N 19:03:40 70° E 19:08:01 10° SSE
Cosmos 1656 4.2 18:59:30 10° SSW 19:05:01 59° WNW 19:10:28 10° N
Cosmos 1151 Rocket 3.1 19:03:05 10° SSE 19:07:14 48° E 19:08:08 41° NE
Okean-O 4.3 19:05:37 10° SSW 19:09:38 35° W 19:13:42 10° NNW
Cosmos 2219 3.1 19:04:01 10° NNW 19:09:40 88° ENE 19:15:16 10° SSE
YAOGAN 1 2.4 19:07:22 10° SSE 19:11:39 73° ENE 19:15:59 10° N
Cosmos 2084 3.7 19:08:46 10° NNW 19:12:27 45° NE 19:12:27 45° NE
FengYun 1-2 T 4.4 19:07:31 10° S 19:13:04 77° WSW 19:18:36 10° NNW
NOSS 2-3 (C) 3.4 19:10:06 10° SSW 19:14:19 88° WNW 19:15:59 38° NNE
Cosmos 923 Rocket 4.0 19:09:35 10° SSW 19:14:49 80° WNW 19:19:29 13° NNE
ERBS 3.7 19:12:05 10° WSW 19:15:07 33° NW 19:16:01 28° NNW
Intelsat 5-3 Rocket 4.0 19:14:03 10° SSW 19:14:25 12° SSW 19:14:25 12° SSW
IUS-18 SRM-1 2.9 19:10:02 10° W 19:15:32 39° SSW 19:16:08 34° S
Cosmos 2034 Rocket 4.1 19:09:23 10° N 19:15:36 54° E 19:21:48 10° SSE
Cosmos 1513 Rocket 4.4 19:09:33 10° N 19:15:59 79° E 19:22:18 10° S
Cosmos 2346 Rocket 4.4 19:12:19 10° S 19:18:30 68° E 19:24:41 10° NNE
ATLAS 5 CENTAUR R/B 4.1 19:16:38 10° S 19:19:00 16° SSE 19:19:00 16° SSE
CZ-3C R/B 2.8 19:18:59 10° SW 19:20:34 12° SSW 19:21:15 12° S
Cosmos 158 Rocket 4.5 19:15:42 10° S 19:20:06 40° ESE 19:20:06 40° ESE
CSL-04 Rocket 3.5 19:15:25 10° SSE 19:20:51 87° ENE 19:26:13 10° NNW
USA 40 PKM 4.3 19:19:28 10° NW 19:23:22 74° SW 19:23:46 63° S
Cosmos 1980 Rocket 2.2 19:18:45 10° S 19:24:13 55° ESE 19:24:56 51° ENE
Tsikada Rocket 3.9 19:19:39 10° S 19:25:52 66° E 19:32:12 10° NNE
Cosmos 1633 4.2 19:25:40 10° NNW 19:31:39 20° S 19:32:51 10° S
Cosmos 2227 Rocket 2.0 19:27:49 10° NNW 19:33:31 83° ENE 19:36:38 28° SSE
Cosmos 2297 Rocket 2.1 19:28:28 10° NNW 19:34:09 89° WSW 19:38:58 15° SSE
Cosmos 1816 Rocket 4.4 19:31:42 10° S 19:38:00 89° E 19:44:23 10° N
Cosmos 2369 4.5 19:32:44 10° SW 19:38:12 50° WNW 19:42:29 17° N
Meteor 2-11 Rocket 4.3 19:35:18 10° N 19:41:27 86° E 19:47:34 10° S
Lacrosse 4 Rocket 3.2 19:41:46 10° WSW 19:45:18 28° WNW 19:46:26 24° NNW
Cosmos 2360 4.3 19:42:15 10° SSW 19:47:55 73° WNW 19:49:19 51° N
Cosmos 1697 Rocket 4.3 20:00:34 10° SW 20:05:31 31° WNW 20:08:43 18° NNW
CZ-4 R/B 4.4 20:03:19 10° SW 20:05:58 16° W 20:08:36 10° NW
USA 215 4.3 20:08:57 31° N 20:08:57 31° N 20:12:41 10° NNW
ATLAS 5 CENTAUR R/B 3.0 20:18:17 10° NW 20:23:51 57° W 20:23:51 57° W
H-2A R/B 3.8 19:40:58 10° W 20:35:28 86° SSW 20:36:31 77° SE
ATLAS 5 CENTAUR R/B 4.4 21:37:59 10° WSW 22:29:44 16° ESE 22:43:52 10° ESE
